CAPE
975 1507 1888 1881 1854 1762 1458 1456 1206 1454 1287 1234 1221 1196 1507 1464 1202 1230 1313 936 743 917 765 645 441 372 493 643 726 588 856 671 416 341 1361 1127 1054 838 520 708 116 308 160
1109 1508 1693 1839 1916 1900 1817 1455 1646 1546 1447 1342 1171 1077 1454 1182 1470 1520 1252 1397 1137 847 1098 899 710 781 772 768 1109 1056 857 589 838 1016 1159 1031 1005 656 585 616 669 914 306
996 1400 1579 1756 1973 2066 2112 1855 1783 1695 1523 1381 1368 1343 1250 1630 1592 1237 1327 1404 1317 1122 1042 1150 936 1224 1168 984 1060 768 619 515 1080 1098 622 48 325 288 164 606 1135 1069 336
1130 1292 1437 1802 1873 1948 2066 2073 1938 1809 1582 1624 1502 1544 1668 1654 1131 968 1340 1208 1259 1255 1121 1208 1210 1236 1293 899 937 731 695 702 720 1076 641 10 0 155 776 50 469 850 521
995 832 1534 1715 1807 1815 1885 1916 1923 1852 1704 1703 1817 1807 1799 1569 1251 1186 1441 1069 1075 1252 1280 1099 1185 1062 1124 1000 669 995 662 222 641 994 965 264 247 580 770 940 588 413 567
710 923 1432 1525 1688 1851 1746 1613 1780 1714 1650 1631 1499 1494 1514 1442 1161 1381 1072 1273 1040 867 1365 922 903 533 888 1015 576 230 349 579 831 1114 176 317 308 757 943 672 629 647 664
778 1413 1413 1528 1663 1835 2238 1992 1827 1825 1908 1635 1910 1659 1540 1359 1109 1348 1132 1332 884 517 1215 869 439 1243 1235 997 1130 421 120 149 426 398 425 898 602 543 1009 1082 1022 380 29
1620 1096 1266 1855 1857 1861 1908 1883 1654 1355 1390 1725 1809 1782 1576 1714 1650 1338 1201 1516 1230 395 880 1100 814 1176 1042 736 514 0 37 317 724 227 502 55 33 704 1299 615 579 817 138
1596 1121 1234 1608 1859 1795 1809 1879 2059 1617 1449 1421 1583 1778 1529 1409 1592 1715 1738 1280 1402 618 1271 1004 925 797 503 457 422 0 42 532 924 882 704 0 0 14 1281 258 253 900 793
1408 1144 1276 1464 1685 1713 1645 1754 1628 2063 1514 1634 1866 1557 1936 1739 1601 1408 1641 1172 1225 667 1427 1123 1089 861 1145 1161 835 270 285 668 654 938 49 0 6 0 168 827 217 464 417
1501 1187 1179 1485 1562 1620 1428 1574 1782 1923 2059 1571 1900 1875 1797 968 1661 1594 1393 1054 1423 672 1060 1396 1198 1229 1124 763 475 372 578 402 579 504 14 0 0 0 24 153 547 754 837
705 1236 1337 1565 1995 1805 1347 1536 1439 1742 1602 1543 1531 1648 1447 1207 1257 1170 919 1225 1630 1159 571 1372 1420 1290 1003 449 263 387 301 417 710 108 10 3 0 63 914 1037 952 1295 667
603 825 1230 1511 1801 1702 1333 1622 1391 1540 1589 1412 1451 1474 1515 851 904 1029 1270 1370 1255 1347 360 1046 1363 1067 788 619 206 131 38 175 116 458 87 20 104 143 423 977 596 601 689
774 670 800 1918 1875 1619 1601 1510 1493 1350 1500 1503 1308 1341 1275 904 834 1232 1126 1333 1340 1069 841 29 407 415 355 232 101 182 225 94 181 694 96 101 120 215 480 521 740 633 610
933 810 783 1687 1663 1399 1408 1576 1294 1095 1379 1304 1607 1515 1517 1571 1074 1471 992 1116 1138 984 685 135 162 5 0 71 31 209 152 212 217 731 330 204 144 196 401 767 929 971 817
1046 1010 1064 1467 1895 1008 1728 1687 917 1616 1132 1459 1692 1196 1755 1475 1195 868 886 1166 1086 906 962 1051 819 642 232 123 46 32 98 134 305 233 999 644 404 287 313 453 731 926 1008
1199 1119 1217 1366 1680 1845 1732 1751 1746 1556 1155 833 852 1421 1107 1259 1405 1281 1070 893 817 812 594 673 674 943 784 347 35 0 55 76 131 286 561 995 611 544 517 403 601 628 549
1274 1157 1455 1469 1692 1621 1935 1711 1822 1227 1161 1253 924 1041 1180 1143 1537 1336 1138 1112 825 672 406 616 516 373 690 205 184 267 72 103 144 80 314 611 991 677 876 489 352 293 362
1382 1430 1628 1519 1814 1807 1993 1974 1620 1274 1410 889 1020 719 1474 1462 1439 1569 1264 1077 510 326 542 474 924 459 685 749 233 239 402 344 153 259 200 158 562 1005 844 743 637 214 302
1561 1866 1880 1995 2153 2189 2181 1933 1517 1582 1287 1236 852 874 1284 1382 1765 1728 1380 1337 395 253 648 874 336 591 503 682 703 387 208 169 223 471 605 322 204 655 837 1021 968 450 451
1653 2110 2133 2274 2367 2312 2091 1693 1794 1312 1242 1084 1070 859 1566 1304 1287 1086 1587 1322 159 0 545 724 650 355 268 561 709 480 482 510 738 464 286 600 451 327 987 890 1206 1211 1131
1633 2146 2288 2425 2482 2498 2259 1996 1868 1517 1286 1108 985 1370 1482 1554 1714 1105 1505 1213 941 705 713 570 640 673 516 397 307 268 169 177 710 300 432 358 208 340 611 1471 932 1101 1245
1497 2187 2370 2495 2615 2730 2349 2241 1922 1742 1298 957 969 1608 1573 1615 1858 1609 1470 1261 907 960 832 498 717 515 451 611 645 89 71 69 240 474 223 444 201 335 544 414 612 1207 1385
1742 2221 2567 2676 2889 2897 2550 2338 2104 1948 1389 1230 929 1461 1488 1929 1894 1766 1520 1492 1232 1118 670 796 767 626 336 211 392 483 504 726 259 127 612 410 1034 691 893 708 896 953 1045
1971 2182 2781 2929 3066 3018 2708 2510 2302 1919 1649 1341 1276 1182 2047 1959 1770 1654 1724 1445 1043 1352 1149 917 1156 1062 799 517 288 441 388 622 446 347 142 465 299 691 923 1165 1065 1124 883
2064 2437 2856 3110 3268 3353 2740 2829 2439 2278 1994 1856 1571 2151 1974 1886 1773 1645 1093 537 295 513 833 1191 1348 1171 886 647 705 856 346 313 190 144 357 277 409 524 838 557 558 707 857
CIN
-71 -76 -34 -24 -14 -13 -31 -22 -18 -6 -8 -5 -6 -12 0 -1 0 -1 0 -3 -7 -1 -1 -3 -14 -15 -19 -16 -11 -15 -11 -26 -38 -45 -1 -5 -2 -2 -5 -6 -9 -15 -39
-82 -79 -57 -25 -15 -3 -10 -30 -9 -7 -10 -6 -15 -8 0 0 0 0 0 0 0 -4 0 0 -2 0 -5 -5 0 0 -8 -30 -25 -8 -1 -1 0 -3 -5 -3 -7 0 -11
-88 -68 -54 -43 -19 -1 0 -6 -7 -7 -3 -6 -4 -1 0 0 0 0 0 0 0 -2 0 0 0 0 0 0 0 -4 -21 -34 -8 -3 -12 -72 -26 -16 -30 -12 -2 0 -7
-82 -62 -44 -28 -29 -18 0 0 0 0 -1 0 0 0 0 0 0 0 0 0 0 0 -2 0 0 0 0 -1 0 -6 -24 -30 -30 -10 -16 -3 0 -35 -6 -86 -20 -1 -4
-85 -99 -53 -29 -18 -21 -13 -1 0 0 0 0 0 0 0 0 0 0 0 -1 0 0 0 0 0 0 0 0 -3 -11 -31 -55 -52 -37 -15 -13 -27 -15 -9 -7 -10 -7 -1
-63 -56 -99 -73 -39 -17 -15 -11 0 0 0 0 0 0 0 0 -1 0 -2 0 0 -1 0 0 0 -5 0 0 -10 -40 -45 -48 -48 -25 -12 -17 -28 -18 0 -1 -3 -5 -5
-16 -71 -86 -64 -39 -19 0 -1 0 -1 0 0 0 0 0 -1 -4 0 -3 0 -1 -5 0 0 0 0 0 0 -3 -36 -55 -57 -52 -11 -12 -32 -43 -30 0 0 0 -15 -87
-51 -100 -106 -37 -21 -13 -7 -4 -2 -13 -8 0 0 0 0 0 0 -1 -1 0 0 -17 0 0 0 0 0 -5 -26 0 -31 -62 -30 -8 -26 -35 -38 -29 0 -14 -10 -2 -31
-48 -123 -114 -40 -9 -6 -1 -4 0 -3 -3 -1 -1 0 0 0 0 0 0 0 0 -4 -1 0 0 0 -15 -25 -37 0 -32 -60 -52 -14 -25 0 0 -5 -1 -46 -39 -1 -1
-32 -105 -96 -36 -12 -7 -7 0 -14 0 -8 0 0 0 0 0 0 -1 0 -3 0 -4 0 0 0 0 0 -2 -27 -69 -76 -62 -45 -17 -33 0 -4 0 -32 -8 -52 -18 -16
-32 -55 -67 -28 -12 -5 -15 -5 -1 -1 0 -1 0 0 0 -17 0 -2 -2 -10 0 -11 0 0 -1 0 -4 -29 -58 -81 -84 -82 -21 -13 -63 0 0 0 -27 -72 -25 -5 -3
-23 -19 -24 -30 -2 -2 -13 -12 -8 -1 -1 -5 -7 -6 -16 -8 -4 -7 -9 -7 0 0 -8 0 0 0 -13 -47 -73 -80 -97 -74 -18 -35 -116 -90 0 -28 -38 -17 -11 0 -9
-88 -17 -11 -23 -29 -4 -9 -20 -11 -2 -2 -7 -11 -14 -6 -25 -9 -19 -18 -7 -13 0 -47 0 0 -2 -21 -21 -26 -63 -61 -36 -29 -21 -124 -118 -109 -96 -72 -27 -38 -30 -12
-141 -79 -25 -18 -26 -21 -4 -14 -7 -9 -6 -17 -19 -29 -2 -14 -22 -5 -23 -10 -8 -8 -3 -120 -29 -34 -29 -23 -15 -19 -14 -38 -6 -21 -97 -99 -85 -90 -76 -63 -39 -37 -26
-163 -135 -76 -14 -27 -17 -8 -5 -3 -10 -9 -13 -7 -11 -19 -12 -22 -9 -25 -5 -14 -24 -16 -57 -44 -147 0 -23 -27 -3 -9 -17 -12 -25 -76 -67 -74 -77 -72 -63 -49 -32 -27
-168 -163 -116 -64 -28 -51 -9 -3 -11 -3 -14 -19 -10 -29 -10 -4 -6 -8 -26 -11 -9 -14 -5 -10 -6 -9 -8 -9 -23 -56 -25 -26 -6 -16 -43 -60 -58 -69 -69 -66 -63 -50 -34
-182 -177 -172 -147 -77 -23 -8 -6 -5 -7 -8 -31 -26 -13 -14 -12 -5 -4 -7 -10 -13 -25 -23 -14 -17 -12 -8 -6 -46 -5 -43 -46 -43 -7 -6 -25 -49 -47 -56 -71 -60 -50 -50
-187 -210 -164 -186 -159 -124 -39 -23 -13 -28 -12 -11 -10 -38 -7 -13 -10 -13 -10 -7 -8 -19 -34 -24 -36 -21 -13 -15 -18 -12 -40 -36 -24 -36 -19 -6 -19 -36 -67 -56 -55 -57 -56
-188 -199 -184 -180 -168 -166 -97 -48 -46 -55 -29 -34 -9 -18 -8 -21 -13 -7 -12 -6 -25 -33 -19 -25 -18 -17 -19 -13 -19 -17 -10 -20 -25 -8 -17 -10 -8 -11 -22 -29 -57 -59 -61
-195 -175 -177 -169 -144 -112 -81 -74 -93 -48 -65 -39 -43 -31 -11 -16 -6 -3 -5 -5 -44 -46 -7 -24 -38 -38 -27 -16 -10 -10 -23 -25 -14 -7 -4 -13 -13 -7 -11 -25 -43 -52 -43
-202 -196 -177 -166 -144 -134 -120 -140 -94 -122 -97 -89 -55 -42 -20 -28 -29 -9 -2 -3 -112 0 -34 -14 -23 -33 -32 -24 -18 -14 -16 -11 -6 -14 -12 -9 -9 -18 -9 -21 -29 -32 -26
-243 -247 -220 -171 -143 -143 -120 -127 -89 -106 -102 -97 -80 -19 -25 -30 -37 -28 -8 -7 -13 -27 -8 -18 -7 -15 -32 -21 -17 -14 -14 -14 -5 -22 -21 -20 -20 -24 -13 -15 -25 -21 -16
-273 -302 -269 -210 -158 -126 -110 -82 -79 -59 -82 -109 -88 -19 -28 -18 -18 -30 -21 -27 -20 -11 -16 -23 -12 -17 -17 -14 -5 -19 -19 -15 -4 -18 -27 -24 -28 -29 -27 -31 -23 -12 -6
-261 -303 -267 -216 -148 -99 -87 -88 -88 -89 -116 -91 -103 -41 -35 -12 -16 -25 -30 -16 -21 -16 -29 -23 -26 -36 -35 -38 -10 -10 -13 -8 -12 -10 -9 -16 -7 -24 -16 -17 -19 -14 -9
-205 -309 -266 -206 -135 -109 -105 -84 -86 -103 -83 -63 -68 -60 -3 -17 -21 -12 -19 -18 -10 -22 -24 -22 -9 -21 -31 -27 -28 -18 -16 -14 -17 -9 -16 -7 -28 -11 -7 -17 -12 -19 -10
-152 -231 -227 -190 -126 -79 -111 -54 -84 -89 -63 -35 -46 -3 -9 -22 -36 -30 -15 -44 -34 -10 -11 -4 -7 -12 -27 -23 -25 -26 -23 -22 -38 -38 -13 -14 -8 -31 -32 -37 -52 -28 -21
Wind_Speed
27 27 29 29 28 28 28 29 31 30 24 21 20 10 13 11 13 9 7 9 17 24 23 21 23 19 15 14 13 11 16 13 12 14 16 15 12 13 17 26 28 29 30
27 27 27 27 27 25 26 27 30 28 29 25 19 16 17 17 13 10 8 8 12 18 24 22 20 18 16 20 17 14 20 22 24 26 27 8 5 12 6 25 21 28 29
28 28 26 26 25 23 23 25 27 17 18 23 22 21 19 18 13 12 8 8 13 18 14 17 18 14 11 13 19 17 22 25 26 29 30 26 8 12 4 19 24 25 27
28 29 27 25 24 21 20 22 20 9 10 11 17 20 20 17 15 14 11 9 7 11 11 12 14 9 7 9 16 19 24 24 25 25 24 17 9 13 5 20 23 25 26
26 27 26 25 22 20 19 16 15 16 8 10 15 19 19 16 15 15 10 9 6 8 12 14 15 11 11 8 12 18 23 24 23 21 18 7 16 4 4 23 24 25 25
27 26 26 25 23 19 17 16 14 12 7 3 12 23 19 17 17 12 11 12 7 10 13 13 14 6 8 6 10 19 21 19 18 19 8 10 12 12 4 24 20 19 21
27 25 25 24 23 22 17 13 12 7 7 6 5 10 10 10 9 9 13 11 7 12 13 13 11 5 4 4 13 20 21 19 17 13 10 11 12 13 10 14 18 19 21
27 23 22 23 23 22 20 16 11 10 6 4 4 5 9 11 6 5 13 7 10 12 17 11 5 4 4 8 17 21 21 18 15 19 13 13 14 13 16 15 16 18 20
28 24 21 21 21 21 21 20 14 11 8 6 4 5 8 10 9 8 5 8 7 11 11 13 7 7 4 6 18 23 22 18 17 16 11 13 15 15 16 17 17 18 18
27 26 24 22 20 21 21 22 19 11 5 5 5 4 9 7 6 9 7 5 6 10 9 11 11 7 6 11 20 24 22 19 21 19 13 14 15 14 16 16 17 17 16
25 25 24 23 21 21 20 21 22 15 11 4 4 7 6 4 4 5 8 7 5 6 11 9 7 10 12 15 22 24 21 21 21 20 7 14 14 13 14 15 16 15 15
23 24 25 25 22 22 18 16 20 17 13 4 3 6 20 14 9 6 5 5 6 6 5 8 7 9 11 16 22 25 23 21 20 7 9 13 13 13 15 17 16 16 15
23 22 23 24 24 22 22 14 20 19 20 17 9 12 20 13 22 5 4 5 5 4 4 3 7 15 20 26 10 19 24 23 20 7 10 13 12 12 13 13 14 14 15
23 23 22 24 24 24 26 21 21 19 18 15 14 17 2 7 10 4 4 4 5 4 6 3 2 13 29 29 23 26 20 23 14 7 10 11 11 11 11 11 13 14 14
23 23 23 23 24 24 27 24 23 21 17 13 9 10 11 2 3 5 4 6 6 7 9 4 2 7 21 18 24 17 15 21 20 10 5 8 9 9 10 10 12 14 12
22 23 23 23 23 23 25 24 23 23 20 17 16 12 15 13 1 8 5 8 8 9 12 9 18 11 3 13 15 20 23 24 20 13 6 5 5 6 7 8 9 8 8
20 22 22 22 22 22 22 21 21 21 20 16 19 11 21 7 5 12 12 18 18 9 11 17 21 21 19 19 8 13 24 25 27 25 15 8 3 3 4 4 5 6 6
17 22 22 21 21 22 22 20 18 19 18 18 15 19 18 8 5 14 18 17 21 8 7 10 13 21 20 17 21 12 10 20 25 29 26 20 10 12 5 3 2 3 4
16 17 19 20 20 20 20 19 19 18 17 17 15 16 17 17 15 9 10 21 16 28 5 8 12 14 18 18 18 18 14 13 13 17 11 26 23 10 9 2 2 1 3
15 15 17 19 19 19 19 19 17 16 17 16 16 15 15 15 14 12 16 17 13 15 22 7 3 11 15 19 20 19 22 17 21 27 21 11 21 21 13 6 3 3 2
15 16 17 18 17 19 18 17 16 16 16 16 16 15 13 13 12 11 12 3 12 28 29 4 7 5 10 23 25 25 21 24 21 26 28 19 19 22 15 9 8 7 9
16 18 17 17 19 19 17 15 16 16 15 15 15 13 12 11 9 10 9 7 7 11 28 19 10 13 14 15 18 23 27 30 28 24 21 16 15 17 12 10 9 10 7
17 20 19 19 20 19 17 15 16 14 14 14 13 10 11 11 6 6 6 7 7 6 10 16 20 22 21 21 20 16 22 27 26 20 17 15 14 13 14 10 10 9 8
18 19 19 20 20 19 19 16 16 15 13 12 11 10 10 10 8 6 4 3 8 5 5 11 15 21 22 24 24 20 28 27 23 26 23 21 21 12 15 13 11 10 12
17 20 19 20 21 21 20 18 16 15 11 11 9 10 11 9 7 4 3 4 9 6 9 11 14 14 20 20 21 23 25 29 29 27 30 21 18 18 17 16 18 16 14
16 17 18 21 22 21 21 19 17 16 12 10 9 8 8 6 4 2 2 10 36 33 6 11 14 16 14 17 21 25 25 25 26 26 25 25 18 18 17 17 22 25 20
Wind_Direction
110 114 118 117 113 113 116 121 135 137 170 178 178 200 191 193 188 197 203 201 180 163 168 176 169 181 191 191 194 200 184 193 194 181 168 168 175 166 155 133 74 87 94
108 114 114 115 111 104 104 118 151 163 156 171 188 192 185 186 197 208 218 219 199 184 167 175 184 187 192 180 185 189 170 161 148 142 134 190 205 174 191 130 57 85 89
109 114 113 113 108 104 99 108 156 203 197 180 181 182 185 188 205 209 227 223 197 186 199 192 189 202 211 200 184 184 165 149 144 133 120 89 202 182 351 53 66 75 81
107 117 118 113 110 99 93 97 95 99 222 222 205 189 185 194 200 204 218 221 233 210 213 210 204 223 230 215 192 181 164 161 155 154 161 82 23 188 226 59 75 82 85
106 115 115 115 107 99 94 82 80 85 62 231 215 197 195 204 204 206 228 232 254 234 211 208 203 223 219 231 212 191 174 167 164 168 183 64 57 328 45 78 81 98 97
112 110 115 116 112 100 92 87 79 70 49 336 232 184 199 208 204 225 229 225 262 234 218 218 218 254 236 245 224 192 186 192 190 185 11 35 38 46 17 126 69 60 66
110 106 113 117 117 113 95 80 74 48 49 42 281 242 240 248 255 250 226 239 271 233 221 223 228 259 271 269 219 195 193 197 201 200 40 42 49 55 25 53 68 69 79
106 107 109 118 119 117 112 98 76 69 45 334 318 280 252 244 295 339 237 278 250 238 212 233 269 292 303 255 208 194 195 207 218 157 59 54 64 57 69 60 67 76 85
114 110 112 119 122 122 124 118 99 80 60 41 335 300 266 253 258 272 12 39 287 249 249 231 266 265 307 266 209 192 194 209 217 217 54 51 68 73 75 79 76 83 83
109 115 120 125 124 127 130 132 122 91 33 310 326 341 271 289 293 262 279 325 309 269 268 252 253 271 268 252 214 191 203 217 199 200 75 67 73 74 96 89 98 95 85
109 115 120 126 129 132 127 134 137 114 92 33 33 73 52 22 338 13 277 54 340 320 265 270 278 261 252 246 215 204 214 210 209 204 42 76 73 76 88 98 104 92 89
126 118 124 129 132 137 128 120 139 130 115 55 16 82 149 121 86 59 15 42 28 353 329 283 281 269 263 249 224 208 216 207 233 319 74 84 75 81 100 121 120 120 110
132 128 124 131 131 136 147 120 141 140 145 137 114 129 158 272 210 29 27 6 340 6 1 350 287 259 248 227 287 243 199 212 232 43 79 91 79 81 99 102 109 114 131
134 138 127 124 133 140 157 142 146 143 144 138 135 147 50 108 111 52 52 19 356 335 300 74 53 269 220 226 252 233 245 239 282 334 98 96 83 83 102 108 122 131 131
138 142 136 127 132 144 160 151 150 150 143 139 138 139 138 15 85 329 338 320 328 313 287 273 277 119 243 265 254 274 278 263 270 319 38 88 87 79 94 118 130 141 129
141 145 136 131 132 138 154 149 155 162 158 155 151 147 150 274 330 307 321 310 312 307 285 271 265 270 289 278 278 272 263 262 271 307 330 6 46 52 78 102 125 119 120
143 146 141 136 137 138 144 145 148 166 161 146 166 271 160 121 317 298 300 287 289 304 281 272 264 263 266 270 293 287 266 266 260 269 293 325 13 58 81 60 99 127 119
145 151 146 139 139 143 145 145 140 155 160 180 153 138 146 113 360 291 284 295 280 304 277 273 273 265 270 275 272 290 292 279 271 261 271 286 310 310 324 359 66 120 141
156 151 148 147 144 144 145 143 145 147 150 162 151 157 147 153 155 138 164 271 293 244 281 273 278 274 273 277 278 281 286 291 294 289 292 275 284 309 315 186 142 129 147
164 161 156 153 148 147 145 146 145 147 153 154 158 150 153 158 156 152 174 292 309 278 205 276 255 281 281 280 278 284 278 283 283 273 285 291 286 286 300 308 302 321 203
171 172 169 163 156 151 150 151 148 154 152 157 160 156 144 150 153 156 160 123 307 208 242 189 277 266 285 275 276 278 286 278 282 280 275 287 289 286 295 300 307 312 321
179 179 179 173 166 162 156 153 153 152 154 155 160 154 143 147 145 154 162 163 152 168 229 278 280 283 286 286 282 284 279 276 277 284 284 283 286 288 293 299 301 309 314
186 178 179 176 172 167 161 154 154 153 155 155 159 150 154 157 139 146 158 172 180 182 292 280 277 275 279 283 282 291 288 281 283 284 280 282 286 285 290 295 300 304 313
192 182 181 179 177 172 168 165 165 160 157 154 151 156 161 160 162 170 182 229 188 262 244 288 284 278 278 278 280 283 277 283 291 286 283 279 288 279 292 293 301 308 309
195 185 182 180 179 175 175 173 171 169 156 157 150 159 156 157 169 178 238 270 277 252 279 286 288 288 284 285 283 284 284 282 283 283 281 284 279 286 288 296 297 304 306
210 195 185 182 183 180 181 179 179 175 165 155 159 148 140 132 138 164 262 320 266 255 190 293 295 292 291 292 289 284 284 288 286 282 280 284 282 282 289 296 301 292 306